Date,TemperatureHighF,TemperatureAvgF,TemperatureLowF,DewpointHighF,DewpointAvgF,DewpointLowF,HumidityHigh,HumidityAvg,HumidityLow,PressureMaxIn,PressureMinIn,WindSpeedMaxMPH,WindSpeedAvgMPH,GustSpeedMaxMPH,PrecipitationSumIn
2013-7-1,76.0,70.8,67.1,74.8,70.6,67.1,100,99,92,30.04,29.91,1,0,2,0.19
2013-7-2,81.6,73.1,67.6,76.3,71.6,67.6,100,95,77,30.14,30.03,4,0,8,0.93
2013-7-3,82.6,73.6,67.4,76.6,71.8,67.4,100,94,75,30.17,30.09,2,0,6,0.00
2013-7-4,91.0,78.1,69.6,76.9,73.1,69.6,100,86,56,30.19,30.03,3,0,7,0.00
2013-7-5,91.4,78.9,68.9,77.8,73.7,68.9,100,86,60,30.14,29.98,2,0,8,0.00
2013-7-6,87.6,75.2,64.8,74.5,69.9,63.6,100,85,58,30.07,29.96,1,0,4,0.00
2013-7-7,88.0,73.0,61.8,77.5,69.2,61.8,100,89,59,30.03,29.89,2,0,4,0.01
2013-7-8,87.0,76.1,68.4,74.0,70.6,66.9,100,85,56,30.02,29.90,2,0,5,0.18
2013-7-9,81.8,71.5,66.4,74.7,69.5,66.1,100,94,70,30.08,30.00,5,0,6,0.03
2013-7-10,84.1,72.9,68.1,76.2,71.2,66.8,100,95,71,30.03,29.76,3,0,7,0.01
2013-7-11,79.6,73.3,63.1,74.5,71.4,62.5,100,94,73,29.95,29.74,2,0,4,0.00
2013-7-12,81.2,68.8,59.0,68.3,61.9,58.9,100,81,50,30.19,29.95,6,1,9,0.00
2013-7-13,74.9,67.6,60.1,70.3,65.0,58.7,100,92,66,30.29,30.19,1,0,4,0.00
2013-7-14,88.0,75.2,64.3,76.5,70.8,64.3,100,88,57,30.31,30.18,2,0,5,0.00
2013-7-15,91.0,76.9,67.4,75.1,70.1,64.5,100,82,47,30.21,30.08,3,0,8,0.00
2013-7-16,90.5,76.3,64.5,73.3,68.2,64.5,100,80,46,30.18,30.10,5,1,8,0.00
2013-7-17,91.2,76.5,63.4,77.8,70.9,63.4,100,85,55,30.18,29.98,2,0,3,0.00
2013-7-18,92.3,79.5,69.3,77.8,72.8,69.1,100,82,51,30.00,29.90,2,0,4,0.00
2013-7-19,93.4,79.5,67.4,78.2,73.1,67.4,100,83,54,29.92,29.69,3,0,12,0.00
2013-7-20,87.6,75.2,63.9,74.6,68.5,63.0,98,81,58,29.81,29.63,2,0,8,0.02
2013-7-21,82.4,70.0,58.4,69.6,63.8,58.4,100,83,51,29.98,29.81,3,0,5,0.00
2013-7-22,82.0,70.4,61.0,71.7,65.6,60.3,100,86,60,30.01,29.84,2,0,7,0.04
2013-7-23,76.8,69.3,65.0,73.0,68.2,65.0,100,96,80,29.84,29.52,4,0,8,3.11
2013-7-24,79.0,69.7,57.0,70.9,63.4,48.1,100,82,58,30.00,29.58,4,1,10,0.00
2013-7-25,72.1,61.1,49.6,62.6,54.5,47.1,95,80,54,30.10,30.00,3,0,10,0.00
2013-7-26,67.4,62.7,58.4,65.5,61.4,57.8,100,96,88,30.08,29.98,2,0,5,0.07
2013-7-27,82.4,66.6,54.8,69.2,61.2,54.8,100,85,51,30.08,29.95,2,0,6,0.00
2013-7-28,80.9,68.7,57.3,70.7,64.2,57.0,100,87,58,30.01,29.92,1,0,5,0.00
2013-7-29,83.4,71.6,63.5,70.4,65.8,60.7,100,83,51,30.05,29.93,2,0,4,0.00
2013-7-30,74.6,61.0,53.1,62.4,57.4,52.3,100,89,52,30.11,30.03,1,0,2,0.00
2013-7-31,79.9,67.0,54.1,66.5,60.0,53.3,100,81,44,30.16,30.01,1,0,2,0.00